Terug naar catalogus

CZ-6A DEB

ActiefPO
NORAD 61087·DEBRIS·🇨🇳 China

Gelanceerd Aug 6, 2024 vanaf Taiyuan Satellite Launch Center

Loading…

Volgende Passages (komende 24 uur)

TLE

VersSource: Space-Track

Epoch: Sep 14, 2026, 10:02 UTC

1 61087U 24140ND  26257.41839214  .00001343  00000-0  30337-3 0  9997
2 61087  88.9078 251.4441 0092876 322.5961  36.8805 14.53068408108687

Volg CZ-6A DEB in realtime met AllMySat

Download on the App Store